THOR ABLESTAR DEB, 6747

Orbit data source: Space-Track

THOR ABLESTAR DEB, 6747 is space debris in LEO originally from a launch on Thu, 29 Jun 1961 UTC launched from the Air Force Eastern Test Range (AFETR). Debris objects in space refer to the collection of defunct objects orbiting the Earth. Examples of debris include non-operational satellites, rocket bodies, and fragments generated from explosions, collisions, or faulty payload assembly.

Loading next visibility...
Identifier
6747, 1961-015KM
Orbit
LEO
Country
Flag of USUS
Related business
Manufacturer
Unknown
Mission
Spacecraft
Bus & Motor
Unknown
Mass
Unknown
Launch date (UTC)
1961-06-29 (65 years ago)
Launch vehicle
Unknown
Launch site
Air Force Eastern Test Range (AFETR)
Object type
Payload
Rocket body
Debris
Shape & HBR
Unknown shape, 0.1 m
Radar Cross Section
Medium (>0.1 m² and <1 m²)

Expand to show TLE details & history
Last TLE update: 20 hours ago

TLE from 20 hours ago
0 THOR ABLESTAR DEB
1 06747U 61015KM  26173.61182127  .00000194  00000-0  18525-3 0  9992
2 06747  66.5986 132.7770 0143113 207.0533 152.3039 13.95213251292330
Epoch: 2026-06-22T14:41Z
TLE epoch observation values (Epoch: 2026-06-22T14:41:01.357Z)
Latitude
0.00001°
Longitude
1.7261°
Altitude
1,005.167 km
Speed
7.303 km/s
True Right ascension
08h 51m 06s
True Declination
0° 00' 00"
Sunlit
Object was in daylight at epoch
Visualization orbit readout
Latitude
Unknown
Longitude
Unknown
Altitude
Unknown
Speed
Unknown
Apparent Right ascension
Unknown
Apparent Declination
Unknown
Sunlit
N/A
Visualization observer readout
Local Sidereal Time
21:39:21
Azimuth
Unknown
Elevation
Unknown
Doppler factor
Unknown
Orbital elements
Apogee altitude
1,013.117 km
Perigee altitude
804.545 km
Semi-major axis
7,286.968 km
Eccentricity
0.01431
Inclination
66.5986°
RAAN
132.777°
Arg. of periapsis
207.0533°
True anomaly
153.05421°
Mean anomaly
152.3039°
Eccentric anomaly
152.68023°
Mean motion
3.48918 °/min
Orbital period
103.18 mins
BSTAR
0.00018525
Loading maneuver chart data...
Computing Atmospheric mass density...

Documentation

Showing up to 5 results
|